{"data":{"norad_id":68802,"intl_designator":"2026-089A","name":"STARLINK-37471","alt_names":[],"object_type":"PAYLOAD","status":"ACTIVE","operator":null,"country":"US","launch_date":"2026-04-23","launch_site_code":"AFWTR","launch_vehicle":null,"mission":null,"orbit_class":"UNKNOWN","rcs_meters":null,"size_class":null,"mass_kg":null,"dimensions":null,"purposes":["comms"],"wikipedia_slug":null,"has_3d_model":false,"image_url":null,"decayed_at":null,"tle_current":{"epoch":"2026-09-20T01:01:46.490016Z","epoch_age_seconds":79427,"freshness":"FRESH","line1":"1 68802U 26089A   26263.04289919  .00013408  00000+0  41707-3 0  9997","line2":"2 68802  97.2873 108.7289 0001432  74.7416 285.3985 15.33431160 23187","mean_motion":15.3343116,"eccentricity":0.0001432,"inclination_deg":97.2873,"raan_deg":108.7289,"arg_perigee_deg":74.7416,"mean_anomaly_deg":285.3985,"bstar":0.00041707,"rev_number":2318,"period_min":93.90705220833,"perigee_km":464.60433199284,"apogee_km":466.56437378831,"semimajor_km":6843.7213528906,"source":"CELESTRAK","updated_at":"2026-09-20T09:00:44.004961Z"}}}